Location: Squirrel Cove
(50.1074°N, 124.9139°W)
Time: 07:39:41
(UTC-08:00)

Tiangong - Visible Passes

Search period start: 03 December 2022 00:00
Search period end: 13 December 2022 00:00
Orbit: 386 x 394 km, 41.5° (Epoch: 02 December)

Date Brightness Start Highest point End Pass type
(mag) Time Alt. Az. Time Alt. Az. Time Alt. Az.
03 Dec 0.2 18:38:37 10° SW 18:40:27 17° S 18:40:27 17° S visible
04 Dec 0.3 17:40:58 10° SSW 17:43:00 16° S 17:45:01 10° SE visible
04 Dec 1.1 19:17:09 10° SW 19:17:30 12° SW 19:17:30 12° SW visible
05 Dec 0.1 18:19:10 10° SW 18:21:23 18° S 18:22:12 16° SSE visible
06 Dec 0.3 17:21:16 10° SW 17:23:28 17° S 17:25:40 10° SE visible
06 Dec 0.7 18:57:58 10° SW 18:59:14 14° SSW 18:59:14 14° SSW visible
07 Dec 0.5 17:59:42 10° SW 18:01:46 16° S 18:03:50 10° SSE visible
08 Dec 0.5 17:01:34 10° SW 17:03:46 17° S 17:05:59 10° SE visible
08 Dec 0.9 18:39:17 10° SSW 18:39:57 10° SSW 18:40:38 10° S visible
09 Dec 0.8 17:40:19 10° SW 17:41:57 13° SSW 17:43:36 10° SSE visible
